Temp
6 4 6 7 7 8 9 10 11 11 11 10 10 10 10 10 10 10 10 9 8 6 8 7 7 7 7 7 6 6 7 6 6 6 6 6 6 6 6 6 5 5 6 6
5 5 6 7 8 8 9 9 10 10 10 10 10 10 10 10 10 10 10 9 7 6 7 7 6 6 6 6 6 6 6 6 6 6 6 5 5 5 5 5 5 5 5 4
6 7 7 7 8 8 9 9 9 9 10 10 10 9 9 10 10 9 9 8 6 6 6 5 5 5 5 5 5 5 6 6 5 5 5 5 5 5 5 5 5 4 5 5
7 7 8 7 8 8 9 9 8 8 8 8 9 10 11 10 10 9 7 7 6 4 3 4 5 5 5 5 5 5 5 4 5 5 5 4 4 4 4 4 5 5 5 5
6 7 7 8 7 8 8 8 8 8 8 8 8 9 10 10 7 6 7 6 5 4 3 3 4 4 4 4 4 3 3 3 3 2 2 2 2 2 2 2 2 3 3 3
6 7 7 7 7 7 7 7 7 6 7 7 8 8 10 11 8 5 5 4 3 3 3 1 1 1 0 3 4 3 3 2 2 2 2 2 2 2 1 1 0 0 0 0
5 6 6 6 6 7 6 6 6 7 7 8 9 9 9 10 10 7 4 2 2 3 2 3 -0 -1 -1 0 -0 0 2 2 2 2 1 0 0 0 0 -0 -0 -1 -1 -1
5 6 6 6 6 7 6 6 7 7 9 10 9 10 8 7 6 5 3 2 2 1 0 0 -1 -1 -1 -0 0 1 1 2 1 1 1 0 -0 -1 -1 -1 -2 -2 -2 -2
6 6 7 6 5 6 6 6 6 7 7 7 8 7 5 5 5 3 2 2 1 -0 -1 -1 0 0 1 2 1 1 2 1 0 -1 -2 -3 -3 -2 -2 -2 -3 -3 -3 -3
6 7 6 6 6 5 6 6 6 6 5 6 8 9 8 4 2 2 1 0 -1 -1 -2 -2 0 1 1 1 0 -0 -1 -3 -4 -4 -6 -6 -6 -5 -4 -3 -3 -4 -4 -4
5 6 5 5 5 5 4 5 6 6 5 6 8 9 6 5 2 1 0 -0 -1 -2 -3 -2 0 -1 -1 -3 -4 -4 -4 -5 -6 -6 -6 -6 -6 -6 -6 -6 -5 -5 -5 -4
5 5 6 6 5 4 5 5 5 5 5 5 6 6 4 3 2 1 0 0 -1 -2 -3 -2 -2 -3 -3 -4 -5 -5 -6 -6 -7 -7 -7 -7 -7 -7 -6 -7 -6 -6 -5 -5
5 4 4 5 5 4 4 5 5 5 4 4 4 4 3 2 1 1 -0 -1 -2 -3 -4 -4 -4 -4 -5 -5 -6 -6 -7 -7 -7 -7 -7 -7 -7 -8 -7 -7 -7 -6 -6 -6
4 3 4 6 5 4 3 3 4 4 4 3 3 4 2 1 2 1 -0 -1 -2 -3 -3 -4 -5 -5 -6 -6 -7 -7 -7 -7 -7 -7 -8 -8 -8 -8 -8 -8 -8 -7 -7 -6
1 1 2 3 4 3 3 3 3 4 4 4 3 3 4 3 1 -0 -0 -2 -3 -4 -5 -5 -5 -6 -6 -7 -7 -7 -8 -8 -8 -8 -8 -8 -8 -8 -8 -8 -9 -9 -9 -9
-1 -1 -0 1 2 2 -0 2 3 3 4 4 4 2 2 2 1 -0 -2 -3 -4 -4 -5 -5 -6 -7 -7 -7 -7 -7 -8 -8 -9 -9 -9 -9 -9 -9 -9 -9 -9 -9 -9 -9
-2 -1 -1 -1 -1 -0 -1 -0 1 3 3 3 3 2 1 0 -1 -2 -3 -4 -4 -5 -6 -7 -7 -7 -6 -7 -8 -8 -9 -9 -9 -9 -9 -9 -9 -9 -10 -10 -9 -9 -9 -9
-1 -2 -3 -2 -2 -3 0 1 0 1 2 2 1 1 -0 -1 -2 -4 -5 -4 -6 -7 -7 -6 -6 -7 -7 -7 -7 -7 -8 -8 -9 -10 -10 -10 -9 -10 -9 -9 -9 -10 -10 -9
-2 -3 -3 -3 -4 -0 -0 -1 -0 -1 -0 -0 -0 -0 -1 -2 -4 -5 -5 -6 -7 -7 -7 -7 -7 -7 -8 -8 -8 -7 -7 -8 -8 -8 -9 -9 -9 -10 -10 -10 -9 -9 -9 -9
-4 -4 -3 -4 -3 -2 -0 -0 -2 -2 -2 -1 -1 -1 -3 -4 -5 -6 -6 -6 -7 -7 -7 -7 -7 -8 -8 -8 -7 -7 -7 -7 -8 -8 -9 -9 -9 -9 -10 -11 -10 -10 -10 -10
-5 -4 -4 -5 -4 -3 -2 -3 -4 -3 -2 -2 -3 -4 -4 -4 -6 -7 -6 -6 -7 -7 -7 -7 -7 -8 -8 -8 -8 -8 -8 -8 -8 -8 -9 -9 -9 -10 -11 -11 -11 -10 -10 -10
-5 -5 -5 -5 -5 -4 -3 -4 -4 -4 -4 -4 -4 -4 -5 -5 -6 -7 -7 -7 -7 -7 -7 -7 -7 -8 -8 -8 -8 -8 -8 -9 -9 -9 -9 -9 -9 -10 -11 -10 -10 -10 -10 -10
-5 -4 -5 -4 -4 -4 -4 -4 -5 -5 -5 -5 -5 -6 -6 -6 -7 -7 -7 -8 -8 -8 -8 -8 -8 -8 -8 -8 -8 -9 -9 -9 -9 -9 -10 -10 -10 -10 -10 -10 -10 -10 -10 -10
-6 -6 -6 -6 -5 -5 -5 -5 -6 -6 -6 -7 -6 -6 -7 -7 -7 -8 -8 -8 -8 -8 -8 -8 -8 -8 -8 -9 -9 -9 -9 -9 -9 -9 -10 -10 -10 -10 -10 -10 -10 -10 -10 -10
-6 -6 -6 -6 -6 -6 -6 -6 -7 -7 -7 -6 -7 -7 -7 -8 -8 -8 -8 -8 -8 -9 -8 -9 -8 -8 -9 -9 -9 -9 -9 -9 -9 -9 -10 -9 -10 -10 -10 -10 -10 -10 -10 -10
-6 -6 -6 -6 -6 -6 -7 -7 -8 -9 -9 -8 -8 -8 -8 -8 -8 -8 -8 -9 -9 -9 -9 -9 -9 -9 -9 -9 -9 -9 -9 -9 -10 -9 -10 -10 -10 -10 -10 -10 -10 -10 -10 -10
Height
3102 3105 3103 3105 3109 3112 3112 3111 3111 3113 3113 3115 3115 3116 3118 3120 3121 3122 3123 3119 3117 3115 3117 3117 3117 3117 3118 3117 3118 3118 3119 3119 3119 3119 3120 3120 3119 3119 3119 3119 3118 3117 3114 3114
3102 3097 3099 3104 3106 3108 3108 3108 3108 3109 3110 3110 3110 3110 3112 3113 3114 3116 3117 3114 3111 3109 3112 3111 3112 3112 3113 3113 3114 3115 3116 3116 3115 3115 3115 3115 3113 3113 3113 3112 3112 3111 3110 3109
3093 3095 3095 3098 3100 3102 3102 3102 3104 3106 3107 3106 3106 3104 3104 3103 3106 3107 3109 3108 3105 3106 3106 3106 3106 3107 3110 3110 3111 3111 3111 3111 3111 3110 3109 3109 3108 3107 3106 3106 3106 3105 3103 3102
3087 3092 3092 3093 3094 3097 3097 3100 3101 3102 3104 3102 3104 3098 3094 3093 3095 3098 3099 3099 3101 3101 3101 3101 3103 3105 3106 3107 3107 3106 3105 3104 3105 3105 3104 3103 3102 3100 3098 3096 3095 3096 3095 3094
3078 3083 3085 3086 3087 3092 3093 3096 3097 3097 3097 3098 3098 3096 3091 3090 3088 3090 3089 3093 3095 3097 3097 3099 3099 3100 3097 3099 3100 3100 3100 3100 3099 3097 3096 3095 3093 3091 3089 3087 3083 3081 3079 3079
3073 3077 3079 3080 3084 3086 3090 3091 3092 3093 3095 3091 3090 3091 3083 3081 3078 3081 3085 3087 3089 3091 3094 3096 3096 3095 3090 3090 3094 3092 3091 3092 3091 3089 3086 3084 3081 3080 3078 3077 3074 3071 3067 3066
3067 3067 3071 3074 3076 3081 3084 3087 3088 3088 3085 3079 3081 3081 3077 3075 3074 3073 3080 3083 3085 3087 3090 3093 3092 3089 3087 3085 3083 3081 3083 3083 3081 3081 3078 3074 3071 3069 3067 3065 3062 3060 3056 3054
3058 3058 3062 3064 3066 3071 3074 3078 3077 3077 3071 3072 3073 3070 3073 3072 3074 3074 3078 3079 3081 3084 3083 3085 3084 3082 3081 3079 3077 3077 3078 3076 3074 3070 3069 3066 3062 3058 3055 3053 3051 3048 3045 3043
3046 3047 3055 3056 3059 3066 3068 3069 3073 3073 3072 3072 3072 3070 3071 3069 3071 3072 3073 3075 3078 3077 3076 3076 3076 3076 3075 3075 3074 3072 3069 3065 3062 3059 3054 3051 3050 3047 3044 3042 3041 3038 3035 3034
3042 3044 3046 3051 3055 3057 3058 3067 3069 3070 3069 3068 3061 3061 3059 3061 3064 3067 3070 3071 3071 3070 3069 3068 3070 3069 3068 3067 3065 3061 3057 3053 3050 3048 3044 3040 3039 3037 3035 3032 3030 3028 3026 3025
3038 3040 3043 3042 3042 3046 3052 3053 3058 3061 3059 3056 3055 3055 3053 3054 3060 3062 3066 3066 3066 3064 3061 3063 3064 3062 3060 3056 3052 3050 3048 3044 3041 3040 3036 3034 3031 3027 3026 3022 3018 3017 3014 3011
3030 3033 3034 3036 3040 3043 3047 3048 3052 3050 3051 3052 3056 3057 3057 3057 3059 3062 3062 3064 3060 3057 3055 3058 3055 3053 3052 3049 3046 3043 3040 3038 3035 3032 3029 3025 3023 3019 3016 3013 3010 3008 3005 3002
3023 3024 3029 3034 3038 3035 3035 3040 3043 3046 3048 3045 3050 3053 3053 3054 3055 3058 3059 3056 3053 3051 3051 3050 3049 3047 3044 3041 3038 3034 3031 3031 3028 3025 3022 3018 3014 3011 3009 3006 3002 3001 2998 2995
3015 3018 3016 3016 3022 3027 3030 3032 3036 3039 3036 3039 3038 3049 3049 3051 3052 3054 3052 3050 3047 3046 3046 3043 3042 3039 3036 3033 3030 3027 3025 3022 3020 3017 3013 3009 3005 3003 2998 2995 2992 2990 2987 2984
3008 3011 3015 3017 3019 3023 3021 3024 3027 3026 3029 3031 3038 3041 3047 3048 3050 3047 3044 3040 3040 3040 3038 3036 3034 3031 3029 3025 3023 3020 3017 3014 3011 3007 3003 2999 2996 2993 2989 2986 2984 2981 2978 2974
3001 3005 3010 3011 3014 3016 3013 3016 3018 3020 3023 3025 3031 3033 3040 3041 3039 3037 3035 3034 3032 3030 3029 3028 3027 3025 3022 3018 3014 3010 3006 3003 3000 2996 2993 2989 2986 2983 2980 2977 2974 2971 2969 2966
2996 3000 3005 3004 3009 3011 3006 3002 3008 3013 3015 3019 3020 3028 3031 3031 3033 3030 3027 3025 3025 3024 3024 3022 3018 3016 3013 3009 3005 3000 2997 2993 2989 2986 2982 2979 2976 2972 2969 2967 2964 2961 2959 2957
2991 2993 2999 3001 3004 3003 2994 2995 2998 3006 3009 3011 3014 3018 3021 3022 3023 3021 3019 3020 3018 3017 3014 3012 3011 3008 3004 2999 2995 2991 2987 2983 2979 2975 2971 2967 2964 2959 2956 2954 2951 2949 2946 2945
2983 2986 2991 2996 2995 2991 2988 2985 2993 2997 3000 3005 3008 3013 3015 3014 3013 3013 3015 3012 3009 3007 3006 3005 3002 2999 2994 2989 2985 2981 2977 2972 2967 2963 2958 2954 2950 2947 2944 2941 2940 2937 2936 2934
2976 2978 2985 2988 2988 2987 2982 2984 2984 2989 2991 2997 3001 3003 3005 3005 3006 3010 3006 3003 3003 3002 3000 2997 2993 2989 2985 2980 2976 2972 2967 2962 2957 2951 2946 2942 2937 2932 2929 2928 2926 2925 2921 2918
2968 2971 2973 2977 2980 2978 2979 2976 2978 2988 2990 2990 2993 2994 2995 2998 3000 2998 2997 2998 2996 2993 2991 2988 2985 2981 2976 2973 2968 2963 2958 2953 2947 2940 2934 2930 2925 2921 2918 2916 2915 2915 2914 2911
2954 2961 2965 2971 2973 2973 2972 2971 2977 2977 2979 2983 2985 2987 2989 2990 2991 2991 2990 2990 2989 2986 2983 2980 2977 2973 2969 2965 2960 2954 2950 2944 2938 2931 2925 2921 2916 2913 2910 2908 2908 2908 2905 2901
2949 2948 2953 2958 2961 2963 2964 2967 2969 2971 2973 2976 2980 2981 2982 2984 2984 2984 2984 2983 2982 2980 2976 2972 2968 2964 2961 2957 2952 2947 2943 2937 2931 2925 2919 2914 2910 2907 2905 2903 2903 2901 2898 2894
2941 2944 2949 2955 2956 2958 2962 2963 2962 2967 2970 2970 2973 2975 2976 2977 2977 2978 2978 2977 2976 2973 2969 2966 2962 2958 2954 2950 2945 2941 2936 2932 2927 2921 2917 2912 2908 2905 2903 2901 2899 2896 2893 2888
2935 2940 2943 2948 2950 2952 2957 2958 2958 2960 2963 2966 2966 2969 2970 2971 2972 2972 2972 2972 2970 2968 2964 2960 2955 2951 2947 2943 2939 2936 2931 2927 2923 2918 2914 2911 2907 2904 2901 2899 2895 2891 2888 2882
2932 2935 2936 2940 2945 2948 2951 2954 2956 2958 2957 2959 2961 2962 2964 2966 2967 2967 2967 2965 2963 2962 2959 2954 2949 2946 2943 2938 2934 2930 2926 2922 2918 2915 2911 2908 2905 2901 2898 2894 2891 2887 2881 2876
Wind_Speed
18 22 28 27 25 27 22 22 17 14 13 13 15 13 17 19 20 21 19 23 25 26 28 19 17 18 19 18 18 17 17 18 18 18 18 18 18 18 18 19 21 22 26 28
19 26 26 24 23 26 25 23 24 21 19 19 20 22 23 23 21 20 19 25 23 29 25 20 17 18 18 16 16 15 14 15 17 18 18 18 19 20 22 24 24 24 25 27
26 25 18 25 25 26 26 25 22 22 19 20 19 24 27 31 25 24 22 20 26 24 21 17 19 18 16 16 16 16 16 17 17 20 22 24 27 29 30 29 29 30 32 33
28 25 26 18 26 25 28 22 20 21 20 23 16 19 11 10 25 27 26 31 27 20 19 20 18 16 18 18 17 19 20 22 24 26 28 30 31 33 35 36 37 35 35 36
32 28 28 32 25 21 28 19 18 18 18 18 21 20 24 21 19 25 31 27 26 21 20 15 14 16 23 20 18 19 22 25 28 30 32 35 37 36 36 37 40 41 44 42
29 24 28 29 28 22 19 17 19 16 16 19 26 24 18 20 29 29 24 24 24 24 17 8 9 10 16 26 24 25 28 29 35 38 39 40 41 39 38 37 38 40 41 37
33 34 27 23 22 23 22 16 8 12 11 12 18 20 30 15 19 32 29 24 22 19 12 12 12 12 17 24 26 30 35 43 46 41 38 39 40 39 39 38 39 40 42 39
36 34 35 26 29 25 29 29 11 6 9 7 7 11 4 12 20 25 25 23 20 13 16 16 14 17 21 24 30 36 43 49 44 42 39 38 37 36 37 37 37 40 42 43
33 40 18 37 28 28 24 33 30 23 22 15 13 4 8 18 25 26 26 20 17 18 17 16 22 26 29 34 38 45 48 45 44 40 40 35 29 31 36 38 39 41 44 42
23 25 23 27 27 29 31 20 21 21 7 9 13 26 19 26 24 23 20 19 18 16 12 13 23 30 35 39 44 43 40 39 36 31 30 27 26 31 34 37 40 41 40 41
33 17 18 24 30 31 29 36 23 20 20 3 3 7 4 28 26 24 20 21 12 13 16 18 28 33 37 33 32 34 35 31 31 20 27 29 32 34 30 35 33 34 38 41
34 17 20 29 20 25 26 29 33 27 17 30 15 3 8 20 25 21 17 13 16 19 21 27 32 31 30 27 30 33 27 25 24 22 26 28 27 29 33 33 37 39 43 42
36 16 14 17 22 22 29 32 33 35 24 25 12 6 15 20 24 13 8 16 18 18 14 22 21 23 22 26 32 34 30 21 27 32 28 29 30 33 36 40 43 42 45 51
32 22 23 18 18 24 31 31 31 35 35 27 32 16 18 20 13 10 16 18 19 17 22 18 21 25 27 31 30 28 28 28 29 33 34 34 36 35 36 39 42 44 46 50
33 29 25 30 25 15 19 20 36 40 40 32 30 32 27 20 16 17 21 18 15 14 17 22 28 26 25 24 26 30 31 32 34 34 34 36 36 37 38 41 42 41 42 44
27 20 25 27 26 25 24 24 25 38 37 38 34 30 24 25 22 21 20 19 17 27 27 26 20 19 23 28 34 37 38 36 35 37 39 39 38 39 41 40 40 43 42 42
34 33 27 18 25 19 22 31 29 28 36 33 35 28 21 22 19 20 17 19 28 24 22 19 23 27 33 35 35 35 34 36 37 37 40 41 41 41 38 37 38 37 37 37
34 40 27 13 15 7 14 15 19 30 27 28 27 25 22 20 17 17 17 26 19 17 25 30 30 35 36 38 36 34 34 36 36 35 35 38 39 41 43 42 32 37 38 40
31 34 15 12 16 10 14 18 19 21 27 30 30 25 23 21 18 17 20 14 22 29 31 33 34 33 35 36 35 35 38 40 41 41 42 45 46 46 46 45 45 48 42 40
26 30 24 17 7 10 14 16 16 16 23 19 24 27 22 19 18 10 16 25 31 32 32 31 32 33 33 36 37 38 40 40 41 44 46 46 43 42 39 43 45 44 44 31
32 29 30 17 11 10 11 15 20 11 7 19 21 25 29 27 20 21 27 28 27 28 29 30 32 34 34 35 35 37 38 39 43 46 44 38 37 36 35 37 37 40 42 44
33 26 22 20 14 14 19 21 19 15 16 18 25 27 24 24 24 22 22 22 24 27 29 30 32 33 33 32 33 34 33 37 39 40 37 33 32 29 29 31 31 33 34 32
22 30 22 24 16 12 20 23 24 21 21 20 18 18 20 20 20 20 21 23 23 24 26 28 29 31 29 29 31 30 31 34 35 32 30 27 23 20 19 18 19 22 23 26
20 23 17 17 20 15 19 21 23 23 24 19 20 21 22 21 19 19 20 20 21 24 26 27 27 28 26 29 25 26 29 31 29 26 24 21 17 14 15 15 20 25 28 31
22 24 24 23 13 17 25 29 27 24 23 23 25 19 20 17 17 17 17 19 20 23 25 25 25 26 26 26 24 25 28 29 25 22 21 18 16 16 17 20 23 27 30 35
20 25 29 26 23 23 21 24 19 17 19 21 17 18 17 17 16 16 17 18 21 23 24 24 24 26 25 26 25 26 27 27 26 22 19 19 20 21 23 25 26 28 33 36
Wind_Direction
243 221 226 229 229 238 251 266 265 244 232 218 237 238 244 245 245 249 244 231 232 246 270 256 250 251 247 247 247 246 247 253 258 259 264 266 271 274 276 278 277 276 277 272
222 231 238 237 235 240 245 251 256 259 260 268 267 263 258 254 247 244 236 229 224 239 261 244 239 235 233 236 241 248 257 271 279 280 278 277 276 277 278 275 275 276 275 277
228 235 261 229 236 239 242 246 251 253 261 262 272 266 262 259 237 236 224 217 226 240 235 220 218 226 228 232 250 266 277 278 281 288 288 290 290 288 283 279 278 281 283 283
236 241 240 232 237 235 241 241 250 255 258 259 258 267 265 235 208 217 208 222 224 206 215 219 230 233 239 250 262 278 282 290 295 297 299 300 300 300 301 300 296 293 289 287
237 238 237 236 237 237 241 241 249 254 262 262 255 260 257 241 195 182 204 209 206 209 215 226 242 252 256 250 263 277 288 301 309 311 310 308 307 306 306 306 305 305 303 303
240 235 237 238 238 233 232 240 245 254 253 255 250 249 260 249 213 186 188 190 196 206 206 208 271 275 281 282 283 287 296 307 314 312 310 308 309 310 309 307 303 303 301 300
232 233 230 227 229 226 222 215 230 224 222 239 248 240 235 240 223 202 179 185 199 209 212 215 214 240 264 285 296 301 308 313 314 313 311 308 307 307 303 301 300 300 296 295
222 230 222 220 218 214 212 208 203 226 234 255 324 227 145 170 154 174 173 189 202 199 212 216 222 244 260 275 284 299 305 307 307 308 306 304 300 296 290 289 287 288 286 289
212 228 238 220 219 204 210 217 223 255 272 284 251 178 179 183 166 170 178 198 188 195 215 227 248 264 272 280 290 297 301 304 309 310 311 307 295 280 277 280 278 275 278 281
225 223 212 201 207 223 217 216 214 228 234 234 231 229 219 188 174 178 173 181 191 214 233 247 263 274 282 293 296 302 309 310 308 306 300 299 291 281 278 275 276 277 276 277
214 215 202 200 198 199 212 227 224 223 218 240 254 208 263 201 174 172 178 195 213 235 248 268 283 289 298 301 300 304 310 304 298 290 277 276 279 284 281 285 280 276 276 273
207 222 219 212 213 223 224 225 221 225 212 226 230 153 160 180 182 182 198 262 233 247 260 282 293 301 303 296 295 299 295 296 294 278 279 293 289 282 284 279 277 277 276 273
200 206 199 202 219 224 220 221 225 228 240 229 212 171 191 178 185 232 206 225 253 275 283 290 297 296 292 288 292 297 299 271 280 290 286 278 280 286 290 292 292 288 284 278
198 210 209 217 221 218 224 225 223 222 229 225 227 208 194 190 244 229 226 256 266 284 294 294 286 287 288 293 298 297 293 295 286 279 280 285 288 288 285 293 291 292 292 290
203 218 226 234 229 224 236 238 228 231 230 226 235 231 231 239 209 236 259 268 280 281 281 283 294 298 299 298 293 289 290 287 285 285 283 282 282 283 284 284 286 290 291 294
202 212 220 237 239 250 257 239 235 232 235 241 245 241 241 249 260 265 266 275 271 280 291 299 305 290 281 283 291 294 293 291 292 292 291 291 289 285 282 283 286 287 285 286
208 220 227 238 240 241 256 237 230 236 231 236 238 245 241 241 254 259 260 259 274 286 298 282 270 281 298 302 301 297 293 291 288 285 285 288 288 285 285 285 282 285 284 280
247 226 219 239 189 220 240 241 233 230 229 229 239 238 244 249 241 248 254 269 289 271 264 273 291 301 302 301 298 299 302 302 298 294 288 283 282 280 279 275 282 277 275 275
228 216 198 194 206 246 235 243 230 212 237 236 238 246 241 236 235 243 277 265 262 272 283 292 298 303 301 301 300 304 305 301 300 300 295 291 289 286 280 276 273 271 276 272
198 214 202 193 192 214 259 250 229 201 243 221 222 220 218 223 233 246 246 253 264 278 285 296 304 303 300 301 306 307 306 305 304 304 302 301 298 291 286 281 275 273 275 276
191 196 201 195 217 237 242 194 179 185 240 203 210 214 223 234 245 246 262 275 281 287 297 303 304 304 304 306 306 305 308 310 308 307 304 303 303 299 286 281 277 275 281 285
187 183 199 203 207 232 207 201 207 221 214 204 212 222 235 244 259 273 281 287 292 297 301 303 305 305 307 307 304 309 311 314 318 319 313 305 304 308 297 284 284 289 293 294
197 200 195 203 214 186 213 228 212 221 231 227 231 235 248 266 270 278 285 294 300 301 307 312 312 311 309 308 310 312 316 320 324 326 325 316 309 309 311 308 306 308 311 311
195 207 209 206 217 212 202 211 219 225 229 229 243 248 264 267 274 283 290 297 300 309 312 313 315 315 315 317 313 314 319 324 327 331 334 331 327 325 322 323 326 325 321 315
206 188 209 199 199 194 183 203 212 221 222 233 251 259 264 272 275 281 288 295 307 316 318 318 319 323 322 320 314 314 318 324 327 328 331 331 331 328 321 320 320 323 323 320
208 204 206 210 208 206 208 211 212 214 233 245 255 265 264 266 270 279 289 305 314 316 319 324 327 329 325 326 317 312 313 318 322 320 319 319 318 315 316 316 320 321 321 323